Weather History for YCIN - April, 2014

Change the Weather History Date:

Sunday, April 20, 2014

  Actual Average Record
Temperature  
Mean Temperature 83 °F -  
Max Temperature 97 °F - - ()
Min Temperature 69 °F - - ()
Cooling Degree Days 18    
Growing Degree Days 33 (Base 50)    
Moisture  
Dew Point 53 °F    
Average Humidity 38    
Maximum Humidity 88    
Minimum Humidity 12    
Precipitation  
Precipitation 0.00 in - - ()
Sea Level Pressure  
Sea Level Pressure 29.83 in    
Wind  
Wind Speed 7 mph ()    
Max Wind Speed 13 mph    
Max Gust Speed -    
T = Trace of Precipitation, MM = Missing Value Source: Averaged Metar Reports

Daily Weather History Graph

Daily Weather History Graph

Search for Another Location

Airport or City:

Trip Planner

Search our weather history database for the weather conditions in past years. The results will help you decide how hot, cold, wet, or windy it might be!

Date:

Astronomy

Apr. 20, 2014 Rise Set
Actual Time 5:54 AM AWST 5:32 PM AWST
Civil Twilight 5:32 AM AWST 5:54 PM AWST
Nautical Twilight 5:07 AM AWST 6:19 PM AWST
Astronomical Twilight 4:41 AM AWST 6:45 PM AWST
Moon 9:57 PM AWST (4/20) 10:18 AM AWST (4/20)
Length of Visible Light 12h 21m
Length of Day
11h 37m
Waning Gibbous, 74% of the Moon is Illuminated
Apr 20
Waning Gibbous
Apr 22
Last Quarter
Apr 29
New
May 7
First Quarter
May 15
Full

Hourly Weather History & Observations

Time (AWST) Temp. Heat Index Dew Point Humidity Pressure Visibility Wind Dir Wind Speed Gust Speed Precip Events Conditions
12:00 AM 79 °F - 42 °F 17% 29.85 in - ESE 6.9 mph - -  
12:00 AM 78.8 °F - 42.8 °F 28% 29.86 in - ESE 6.9 mph - N/A   Unknown
1:00 AM 77.0 °F - 41.0 °F 28% 29.83 in - SE 8.1 mph - N/A   Unknown
2:00 AM 77.0 °F - 41.0 °F 28% 29.83 in - ESE 8.1 mph - N/A   Unknown
3:00 AM 76 °F - 40 °F 17% 29.82 in - ESE 10.4 mph - -  
3:00 AM 77.0 °F - 41.0 °F 28% 29.83 in - ESE 10.4 mph - N/A   Unknown
4:00 AM 73.4 °F - 41.0 °F 31% 29.83 in - ESE 9.2 mph - N/A   Unknown
5:00 AM 73.4 °F - 42.8 °F 33% 29.83 in - ESE 9.2 mph - N/A   Unknown
6:00 AM 73 °F - 44 °F 24% 29.84 in - East 9.2 mph - -  
6:00 AM 73.4 °F - 44.6 °F 36% 29.83 in - East 9.2 mph - N/A   Unknown
7:00 AM 77.0 °F - 48.2 °F 36% 29.86 in - East 8.1 mph - N/A   Unknown
8:00 AM 86.0 °F - 51.8 °F 31% 29.86 in - East 9.2 mph - N/A   Unknown
9:00 AM 89 °F - 53 °F 20% 29.87 in - ENE 12.7 mph - -  
9:00 AM 89.6 °F 87.3 °F 53.6 °F 29% 29.89 in - ENE 12.7 mph - N/A   Unknown
10:00 AM 93.2 °F - 51.8 °F 24% 29.86 in - NE 10.4 mph - N/A   Unknown
11:00 AM 95.0 °F - 50.0 °F 22% 29.86 in - NE 10.4 mph - N/A   Unknown
12:00 PM 96 °F - 53 °F 15% 29.82 in - North 6.9 mph - -  
12:00 PM 96.8 °F 94.4 °F 53.6 °F 23% 29.83 in - North 6.9 mph - N/A   Unknown
1:00 PM 95.0 °F - 50.0 °F 22% 29.80 in - ENE 6.9 mph - N/A   Unknown
2:00 PM 96.8 °F - 50.0 °F 20% 29.77 in - NE 3.5 mph - N/A   Unknown
3:00 PM 96 °F - 49 °F 12% 29.77 in - North 5.8 mph - -  
3:00 PM 96.8 °F - 48.2 °F 19% 29.77 in - North 5.8 mph - N/A   Unknown
4:00 PM 95.0 °F - 50.0 °F 22% 29.77 in - ENE 3.5 mph - N/A   Unknown
5:00 PM 89.6 °F 92.2 °F 66.2 °F 46% 29.80 in - NW 6.9 mph - N/A   Mostly Cloudy
6:00 PM 83 °F - 68 °F 52% 29.81 in - NNW 4.6 mph - -  
6:00 PM 84.2 °F 87.3 °F 68.0 °F 58% 29.80 in - NNW 4.6 mph - N/A   Unknown
7:00 PM 77.0 °F - 66.2 °F 69% 29.83 in - NW 4.6 mph - N/A   Unknown
8:00 PM 75.2 °F - 68.0 °F 78% 29.83 in - NNW 5.8 mph - N/A   Unknown
9:00 PM 73 °F - 68 °F 80% 29.84 in - WNW 3.5 mph - -  
9:00 PM 73.4 °F - 68.0 °F 83% 29.86 in - WNW 3.5 mph - N/A   Unknown
10:00 PM 69.8 °F - 66.2 °F 88% 29.86 in - NNW 2.3 mph - N/A   Unknown
11:00 PM 69.8 °F - 66.2 °F 88% 29.83 in - Calm Calm - N/A   Unknown